YAOGAN-50 02 DEB

基本信息
目录编号:
100570
目录名称:
YAOGAN-50 02 DEB
国际标识:
2026-051J
轨道中心:
EARTH
物体状态:
在轨
发射日期:
2026-03-15 UTC
轨道信息
数据来源: 国际轨道数据
星历时间: 2026-09-05T04:10:33+0800
半长轴: 7318.127km
偏心率: 0.0139084
轨道倾角: 141.998°
近地点辐角: 334.367°
升交点赤经: 353.211°
平近点角: 25.023°
近地点: 838.206km
远地点: 1041.774km
周期: 103.839分钟
每日圈数: 13.867652
详细信息
发射场:
TSC
轨道高度:
LEO
数据来源:
AOE Integration Group
参考系:
TEME
时间系统:
UTC
历元类型:
SGP4
2D轨道图
3D轨道图
轨道高度分析图
轨道倾角分析图
轨道综合分析图
查看轨道综合分析图